Regional Weather Roundup
Issued by NWS

Home | Current Version | Previous Version | Graphics & Text | Print | Product List | Glossary On
Versions: 1 2 3 4 5 6 7 8 9 10 11 12 13 14 15 16 17 18 19 20 21 22 23 24 25 26 27 28 29 30 31 32 33 34 35 36 37 38 39 40 41 42 43 44 45 46 47 48 49 50
000
ASUS45 KABQ 280801
RWRNM
WEATHER ROUNDUP FOR NEW MEXICO
NATIONAL WEATHER SERVICE ALBUQUERQUE NM
100 AM MST SUN DEC 28 2014

NOTE: "FAIR" MEANS FEW OR NO CLOUDS BELOW 12,000 FEET AGL WITH NO
       SIGNIFICANT WEATHER OR OBSTRUCTIONS TO VISION.

      THIS PRODUCT IS RELEASED AS TWO VERSIONS.  ONE VERSION NEAR
      THE TOP OF THE HOUR CONTAINING PRELIMINARY DATA FROM ALBUQUERQUE
      AND OTHER STATIONS.  A FINAL VERSION WITH ADDITIONAL DATA IS
      ISSUED ABOUT 10 MINUTES AFTER THE HOUR.

NMZ501-503-504-510>518-280900-
NORTHWEST PLATEAU/NORTHCENTRAL MOUNTAINS

CITY           SKY/WX    TMP DP  RH WIND       PRES   REMARKS
FARMINGTON     CLEAR      3  -1  83 NE6       30.26F WCI  -8
SANTA FE       PTCLDY    17   8  67 N14       30.16F WCI   3
TAOS           PTCLDY    -4  -8  84 N8        30.17F WCI -19
ANGEL FIRE     FAIR      -6  -9  85 NE9       30.10S WCI -22

$$
NMZ402-403-502-505>509-280900-
WESTCENTRAL MOUNTAINS/SOUTHWEST MOUNTAINS

CITY           SKY/WX    TMP DP  RH WIND       PRES   REMARKS
GALLUP         CLEAR      1  -4  79 CALM      30.24F
GRANTS         CLEAR      8   5  84 NW6       30.23F WCI  -2
SILVER CITY    PTCLDY    18  10  73 N8        30.26F WCI   7

$$
NMZ407-409-411-412-280900-
SOUTHERN DESERTS

CITY           SKY/WX    TMP DP  RH WIND       PRES   REMARKS
LORDSBURG      FAIR      23  21  93 S3        30.28S
DEMING         CLEAR     23  20  88 CALM      30.27F
HOLLOMAN AFB   PTCLDY    21  15  77 CALM      30.25F
ALAMOGORDO     CLEAR     25  18  74 MISG      30.26F
T OR C         CLEAR     25  10  53 N7        30.25F WCI  17

$$
NMZ519>523-280900-
CENTRAL VALLEYS/CENTRAL HIGHLANDS

CITY           SKY/WX    TMP DP  RH WIND       PRES   REMARKS
ALBUQUERQUE    PTCLDY    23   9  55 CALM      30.24F
DOUBLE EAGLE   PTCLDY    20   7  56 N12       30.21F WCI   8
MORIARTY ARPT  FAIR      16   7  68 NW8       30.17F WCI   5
CLINES CORNERS CLEAR     11   4  73 W14       30.07F WCI  -5
BELEN          FAIR      12   6  76 E3        30.25F
SOCORRO        FAIR      22  10  58 CALM      30.27S

$$
NMZ524>526-539-540-280900-
SOUTHCENTRAL MOUNTAINS

CITY           SKY/WX    TMP DP  RH WIND       PRES   REMARKS
RUIDOSO        CLEAR     19   7  58 NW7       30.18F WCI  10

$$
NMZ527>531-280900-
NORTHEAST HIGHLANDS/NORTHEAST PLAINS

CITY           SKY/WX    TMP DP  RH WIND       PRES   REMARKS
LAS VEGAS      PTCLDY    11   3  70 N3        30.06F
RATON          PTCLDY     1  -2  87 NE6       30.05F WCI -10
CLAYTON        PTCLDY    19  13  77 W12       30.07F WCI   7

$$
NMZ532>537-280900-
EASTCENTRAL PLAINS

CITY           SKY/WX    TMP DP  RH WIND       PRES   REMARKS
TUCUMCARI      CLEAR     19  14  81 SW8       30.12F WCI   9
CANNON AFB     CLEAR     16  12  82 SW8       30.16F WCI   5
CLOVIS AIRPORT CLEAR     16  10  79 SW8       30.17F WCI   5

$$
NMZ028-029-538-280900-
SOUTHEAST PLAINS

CITY           SKY/WX    TMP DP  RH WIND       PRES   REMARKS
ROSWELL        CLEAR     19  14  81 CALM      30.23F
ARTESIA        CLEAR     25  21  86 VRB3      30.26F
CARLSBAD       CLEAR     29  25  85 SW3       30.27F
HOBBS          CLEAR     25  25 100 CALM      30.27F


$$



USA.gov is the U.S. government's official web portal to all federal, state and local government web resources and services.